This demonstration page uses our WeatherBlox Daily Observations layout. Learn more.

Left ArrowRight Arrow

Hourly Observations for September 11, 2018

Temp ( °F °C ) Dew Point ( °F °C ) Humidity (%) Winds ( mph kmh ) Pressure ( in mb ) Visibility ( mi km ) Precip ( " mm )
12:53 am 00:53 Clear 63 17.2 59 15 87 87 S 8 13 29.98 1015 10 16 0.00 0.00
1:53 am 01:53 Clear 62 16.7 59 15 90 90 S 9 15 29.97 1015 10 16 0.00 0.00
2:53 am 02:53 Clear 61 16.1 58 14.4 90 90 S 8 13 29.96 1015 10 16 0.00 0.00
3:53 am 03:53 Clear 60 15.6 58 14.4 93 93 S 8 13 29.96 1015 10 16 0.00 0.00
4:53 am 04:53 Clear 60 15.6 58 14.4 93 93 S 8 13 29.96 1015 10 16 0.00 0.00
5:53 am 05:53 Clear 59 15 58 14.4 96 96 S 9 15 29.96 1015 10 16 0.00 0.00
6:53 am 06:53 Clear 59 15 57 13.9 93 93 S 8 13 29.96 1014 10 16 0.00 0.00
7:53 am 07:53 Sunny 60 15.6 58 14.4 93 93 S 10 17 29.96 1015 10 16 0.00 0.00
8:27 am 08:27 Mostly Sunny 60 15.6 58 14.4 93 93 S 12 19 29.97 1015 10 16 0.00 0.00
8:53 am 08:53 Sunny 62 16.7 59 15 90 90 S 12 19 29.96 1015 10 16 0.00 0.00
9:53 am 09:53 Sunny 67 19.4 60 15.6 79 79 S 15 24 29.96 1015 10 16 0.00 0.00
10:53 am 10:53 Sunny 71 21.7 61 16.1 71 71 S 15 24 29.95 1014 10 16 0.00 0.00
11:53 am 11:53 Sunny 75 23.9 63 17.2 66 66 S 15 24 29.93 1014 10 16 0.00 0.00
12:53 pm 12:53 Sunny 78 25.6 64 17.8 62 62 S 17 28 29.93 1014 10 16 0.00 0.00
1:53 pm 13:53 Sunny 80 26.7 63 17.2 56 56 S 18 30 29.91 1013 10 16 0.00 0.00
2:53 pm 14:53 Sunny 82 27.8 64 17.8 55 55 S 18 30 29.90 1013 10 16 0.00 0.00
3:53 pm 15:53 Sunny 81 27.2 61 16.1 51 51 S 18 30 29.89 1012 10 16 0.00 0.00
4:53 pm 16:53 Sunny 81 27.2 61 16.1 51 51 S 16 26 29.89 1012 10 16 0.00 0.00
5:53 pm 17:53 Sunny 80 26.7 61 16.1 52 52 S 13 20 29.88 1012 10 16 0.00 0.00
6:53 pm 18:53 Sunny 78 25.6 61 16.1 56 56 S 12 19 29.88 1012 10 16 0.00 0.00
7:53 pm 19:53 Clear 73 22.8 61 16.1 66 66 S 9 15 29.89 1012 10 16 0.00 0.00
8:53 pm 20:53 Clear 69 20.6 62 16.7 78 78 S 8 13 29.93 1013 10 16 0.00 0.00
9:53 pm 21:53 Clear 68 20 61 16.1 78 78 SSE 9 15 29.95 1014 10 16 0.00 0.00
10:53 pm 22:53 Clear 67 19.4 60 15.6 79 79 SSE 12 19 29.95 1014 10 16 0.00 0.00
11:53 pm 23:53 Clear 66 18.9 60 15.6 81 81 S 8 13 29.95 1014 10 16 0.00 0.00

Powered by AerisWeather